Regional Weather Roundup
Issued by NWS Kansas City/Pleasant Hill, MO

Home | Current Version | Previous Version | Text Only | Print | Product List | Glossary On
Versions: 1 2 3 4 5 6 7 8 9 10 11 12 13 14 15 16 17 18 19 20 21 22 23 24 25 26 27
000
ASUS43 KEAX 222310
RWREAX

WEATHER ROUNDUP FOR EASTERN KANSAS AND NORTHWEST MISSOURI
NATIONAL WEATHER SERVICE KANSAS CITY/PLEASANT HILL MO
500 PM CST WED FEB 22 2017

KSZ040-057-103>105-MOZ028-029-037-043-230000-
...KANSAS CITY METROPOLITAN AREA...

CITY           SKY/WX    TMP DP  RH WIND       PRES   REMARKS
K.C. INTL      PTSUNNY   77  35  21 W7        29.63S
K.C. DOWNTOWN  SUNNY     79  34  19 W5        29.61S
LEES SUMMIT    SUNNY     76  35  22 SW9       29.63F
OLATHE - IXD   MOSUNNY   76  34  21 W8        29.64R
OLATHE - OJC   SUNNY     75  37  25 S6        29.63S
LAWRENCE       CLOUDY    75  37  25 W8        29.63R

$$

MOZ001>008-011>017-020>025-030>033-038>040-044>046-053-054-230000-
...NORTHERN AND CENTRAL MISSOURI...

CITY           SKY/WX    TMP DP  RH WIND       PRES   REMARKS
ST. JOSEPH     SUNNY     74  40  29 NW6       29.63S
WARRENSBURG    SUNNY     72  43  35 S9        29.64F
WHITEMAN AFB   MOSUNNY   74  43  32 SW17      29.64S
CLINTON        SUNNY     75  43  31 SW10      29.67S
SEDALIA        SUNNY     76  45  33 SW16      29.66F
WARSAW         NOT AVBL
CHILLICOTHE      N/A     77  36  22 SW8       29.62S
KIRKSVILLE     CLEAR     72  47  40 SW9       29.63F

$$

MOZ041-047>049-056>058-063>065-088>090-097-230000-
...EASTERN AND SOUTHERN MISSOURI...

CITY           SKY/WX    TMP DP  RH WIND       PRES   REMARKS
ST. LOUIS INTL MOCLDY    72  56  57 CALM      29.71F
SPIRIT OF STL  MOCLDY    71  57  61 CALM      29.69F
COLUMBIA       CLEAR     67  55  65 S15       29.68F
JEFFERSON CITY PTCLDY    70  54  56 S8        29.69F
ROLLA          CLEAR     70  54  56 S14       29.70F
OSAGE BEACH    CLEAR     72  53  51 S10       29.71S
SPRINGFIELD    SUNNY     71  55  56 S13       29.70F
BRANSON        MOSUNNY   73  55  53 E8        29.74F
JOPLIN         SUNNY     76  41  28 SW10      29.70F
WEST PLAINS    CLEAR     64  55  72 SE10      29.78S

$$

IAZ060-094-KSZ022-034>040-054-083-096-NEZ052-066-093-230000-
...KANSAS...SOUTHEAST NEBRASKA AND IOWA...

CITY           SKY/WX    TMP DP  RH WIND       PRES   REMARKS
TOPEKA         CLOUDY    73  38  27 W6        29.64R
MANHATTAN      PTSUNNY   75  34  22 W3        29.64S
EMPORIA        CLOUDY    74  37  26 W6        29.66R
CHANUTE        SUNNY     80  33  18 SW10      29.67R
WICHITA        MOSUNNY   75  45  34 S8        29.67S
OMAHA          MOSUNNY   70  38  31 N14       29.65R
LINCOLN        SUNNY     73  27  18 N17       29.68R
FALLS CITY     CLOUDY    72  37  28 N6        29.63S
LAMONI         CLEAR     71  38  29 NW12      29.62R
DES MOINES     PTCLDY    70  41  34 NW15      29.61R

$$





USA.gov is the U.S. government's official web portal to all federal, state and local government web resources and services.